When you browse on this site, cookies collect data to enhance your experience and personalize the content and advertising you see.
Visit our Privacy Policy to learn more. By continuing to use the site, you agree to this use of cookies and data.
  • en Suisse
  • Liste des pays
  • À 7 jours
  • Température de l'eau
  • Carte satellitaire
  • Carte météo
  • Widgets météo
  • user-avatar
    Se connecter

    Météo par heure à Seredivka

    Ce jour, 21 Février, Jeudi

    Heure Température Précipitation Vent Pression Humidité
    00:00 0°C° 0.1 mm 5 m/s 746 mmHg 89%
    01:00 -1°C° 0.1 mm 6 m/s 746 mmHg 89%
    02:00 -1°C° 0 mm 4 m/s 746 mmHg 93%
    03:00 -1°C° 0.1 mm 5 m/s 746 mmHg 90%
    04:00 -2°C° 0.1 mm 6 m/s 746 mmHg 88%
    05:00 -2°C° 0.1 mm 6 m/s 746 mmHg 85%
    06:00 -3°C° 0 mm 6 m/s 747 mmHg 84%
    07:00 -4°C° 0 mm 6 m/s 747 mmHg 82%
    08:00 -5°C° 0 mm 6 m/s 747 mmHg 81%
    09:00 -5°C° 0 mm 6 m/s 748 mmHg 80%
    10:00 -5°C° 0 mm 6 m/s 748 mmHg 79%
    11:00 -6°C° 0 mm 7 m/s 749 mmHg 78%
    12:00 -6°C° 0 mm 7 m/s 749 mmHg 78%
    13:00 -5°C° 0 mm 6 m/s 749 mmHg 77%
    14:00 -5°C° 0 mm 6 m/s 749 mmHg 77%
    15:00 -5°C° 0 mm 6 m/s 749 mmHg 78%
    16:00 -6°C° 0 mm 5 m/s 749 mmHg 79%
    17:00 -5°C° 0 mm 4 m/s 750 mmHg 80%
    18:00 -8°C° 0 mm 4 m/s 750 mmHg 81%
    19:00 -9°C° 0 mm 4 m/s 750 mmHg 82%
    20:00 -9°C° 0 mm 3 m/s 751 mmHg 83%
    21:00 -9°C° 0 mm 3 m/s 751 mmHg 83%
    22:00 -10°C° 0 mm 3 m/s 751 mmHg 84%
    23:00 -10°C° 0 mm 3 m/s 751 mmHg 84%

    Demain, 22 Février, Vendredi

    Heure Température Précipitation Vent Pression Humidité
    00:00 -10°C° 0 mm 3 m/s 752 mmHg 84%
    01:00 -10°C° 0 mm 3 m/s 752 mmHg 85%
    02:00 -12°C° 0 mm 3 m/s 752 mmHg 86%
    03:00 -12°C° 0 mm 3 m/s 752 mmHg 86%
    04:00 -12°C° 0 mm 3 m/s 752 mmHg 87%
    05:00 -12°C° 0 mm 3 m/s 752 mmHg 87%
    06:00 -12°C° 0 mm 3 m/s 753 mmHg 88%
    07:00 -14°C° 0 mm 4 m/s 753 mmHg 88%
    08:00 -14°C° 0 mm 4 m/s 753 mmHg 89%
    09:00 -14°C° 0 mm 5 m/s 754 mmHg 87%
    10:00 -13°C° 0 mm 5 m/s 754 mmHg 85%
    11:00 -14°C° 0 mm 6 m/s 754 mmHg 82%
    12:00 -12°C° 0 mm 6 m/s 754 mmHg 81%
    13:00 -12°C° 0 mm 6 m/s 754 mmHg 79%
    14:00 -11°C° 0 mm 6 m/s 755 mmHg 78%
    15:00 -12°C° 0 mm 6 m/s 755 mmHg 79%
    16:00 -12°C° 0 mm 5 m/s 755 mmHg 81%
    17:00 -12°C° 0 mm 5 m/s 756 mmHg 83%
    18:00 -13°C° 0 mm 5 m/s 756 mmHg 84%
    19:00 -13°C° 0 mm 5 m/s 757 mmHg 85%
    20:00 -14°C° 0 mm 5 m/s 757 mmHg 86%
    21:00 -14°C° 0 mm 5 m/s 757 mmHg 87%
    22:00 -14°C° 0 mm 5 m/s 758 mmHg 88%
    23:00 -14°C° 0 mm 5 m/s 758 mmHg 89%

    Après-demain, 23 Février, Samedi

    Heure Température Précipitation Vent Pression Humidité
    00:00 -14°C° 0 mm 5 m/s 759 mmHg 88%
    01:00 -14°C° 0 mm 5 m/s 759 mmHg 88%
    02:00 -14°C° 0 mm 5 m/s 759 mmHg 88%
    03:00 -14°C° 0 mm 5 m/s 759 mmHg 89%
    04:00 -15°C° 0 mm 5 m/s 760 mmHg 89%
    05:00 -15°C° 0 mm 5 m/s 760 mmHg 89%
    06:00 -15°C° 0 mm 5 m/s 761 mmHg 90%
    07:00 -15°C° 0 mm 5 m/s 761 mmHg 90%
    08:00 -15°C° 0 mm 5 m/s 762 mmHg 90%
    09:00 -14°C° 0 mm 5 m/s 762 mmHg 89%
    10:00 -15°C° 0 mm 6 m/s 762 mmHg 87%
    11:00 -14°C° 0 mm 6 m/s 763 mmHg 86%
    12:00 -12°C° 0 mm 6 m/s 763 mmHg 85%
    13:00 -12°C° 0 mm 5 m/s 763 mmHg 84%
    14:00 -12°C° 0 mm 5 m/s 763 mmHg 83%
    15:00 -12°C° 0 mm 5 m/s 763 mmHg 84%
    16:00 -11°C° 0 mm 4 m/s 763 mmHg 85%
    17:00 -11°C° 0 mm 4 m/s 763 mmHg 86%
    18:00 -11°C° 0 mm 4 m/s 763 mmHg 87%
    19:00 -11°C° 0 mm 4 m/s 764 mmHg 88%
    20:00 -12°C° 0 mm 4 m/s 764 mmHg 88%
    21:00 -12°C° 0 mm 3 m/s 764 mmHg 90%
    22:00 -12°C° 0 mm 3 m/s 764 mmHg 91%
    23:00 -10°C° 0 mm 2 m/s 764 mmHg 92%

    24 Février, Dimanche

    Heure Température Précipitation Vent Pression Humidité
    00:00 -12°C° 0 mm 2 m/s 764 mmHg 93%
    01:00 -13°C° 0 mm 2 m/s 764 mmHg 94%
    02:00 -14°C° 0 mm 2 m/s 764 mmHg 95%
    03:00 -14°C° 0 mm 2 m/s 763 mmHg 95%
    04:00 -14°C° 0 mm 2 m/s 763 mmHg 94%
    05:00 -15°C° 0 mm 2 m/s 763 mmHg 94%
    06:00 -14°C° 0 mm 2 m/s 763 mmHg 93%
    07:00 -14°C° 0 mm 2 m/s 763 mmHg 93%
    08:00 -14°C° 0 mm 2 m/s 763 mmHg 93%
    09:00 -10°C° 0 mm 1 m/s 763 mmHg 89%
    10:00 -9°C° 0 mm 1 m/s 763 mmHg 85%
    11:00 -8°C° 0 mm 1 m/s 763 mmHg 81%
    12:00 -7°C° 0 mm 1 m/s 763 mmHg 80%
    13:00 -6°C° 0 mm 1 m/s 763 mmHg 79%
    14:00 -6°C° 0 mm 1 m/s 762 mmHg 78%
    15:00 -7°C° 0 mm 1 m/s 762 mmHg 80%
    16:00 -8°C° 0 mm 1 m/s 762 mmHg 83%
    17:00 -9°C° 0 mm 0 m/s 762 mmHg 85%
    18:00 -9°C° 0 mm 0 m/s 762 mmHg 83%
    19:00 -9°C° 0 mm 0 m/s 763 mmHg 82%
    20:00 -10°C° 0 mm 1 m/s 763 mmHg 80%
    21:00 -10°C° 0 mm 1 m/s 763 mmHg 80%
    22:00 -10°C° 0 mm 1 m/s 763 mmHg 80%
    23:00 -12°C° 0 mm 2 m/s 763 mmHg 79%

    25 Février, Lundi

    Heure Température Précipitation Vent Pression Humidité
    00:00 -12°C° 0 mm 2 m/s 763 mmHg 80%
    01:00 -10°C° 0 mm 2 m/s 763 mmHg 80%
    02:00 -10°C° 0 mm 2 m/s 763 mmHg 80%
    03:00 -10°C° 0 mm 2 m/s 763 mmHg 81%
    04:00 -10°C° 0 mm 2 m/s 763 mmHg 82%
    05:00 -10°C° 0 mm 3 m/s 762 mmHg 83%
    06:00 -10°C° 0 mm 3 m/s 762 mmHg 85%
    07:00 -9°C° 0 mm 3 m/s 762 mmHg 87%
    08:00 -8°C° 0 mm 3 m/s 762 mmHg 89%
    09:00 -7°C° 0 mm 4 m/s 762 mmHg 88%
    10:00 -5°C° 0 mm 4 m/s 761 mmHg 87%
    11:00 -4°C° 0 mm 5 m/s 761 mmHg 87%
    12:00 -4°C° 0 mm 5 m/s 760 mmHg 86%
    13:00 -2°C° 0 mm 5 m/s 759 mmHg 85%
    14:00 -1°C° 0 mm 5 m/s 759 mmHg 84%
    15:00 -1°C° 0 mm 5 m/s 758 mmHg 85%
    16:00 -1°C° 0 mm 5 m/s 758 mmHg 86%
    17:00 -1°C° 0 mm 5 m/s 757 mmHg 87%
    18:00 -1°C° 0 mm 5 m/s 757 mmHg 88%
    19:00 -2°C° 0 mm 5 m/s 757 mmHg 90%
    20:00 -2°C° 0 mm 5 m/s 757 mmHg 91%
    21:00 -2°C° 0 mm 5 m/s 757 mmHg 91%
    22:00 -4°C° 0 mm 5 m/s 757 mmHg 92%
    23:00 -4°C° 0 mm 5 m/s 756 mmHg 93%

    26 Février, Mardi

    Heure Température Précipitation Vent Pression Humidité
    00:00 -5°C° 0 mm 5 m/s 756 mmHg 92%
    01:00 -5°C° 0 mm 5 m/s 756 mmHg 92%
    02:00 -5°C° 0 mm 4 m/s 755 mmHg 92%
    03:00 -5°C° 0 mm 4 m/s 755 mmHg 92%
    04:00 -5°C° 0 mm 4 m/s 755 mmHg 93%
    05:00 -7°C° 0 mm 4 m/s 754 mmHg 93%
    06:00 -5°C° 0 mm 4 m/s 754 mmHg 94%
    07:00 -5°C° 0 mm 4 m/s 754 mmHg 95%
    08:00 -5°C° 0 mm 4 m/s 754 mmHg 95%
    09:00 -4°C° 0 mm 4 m/s 753 mmHg 94%
    10:00 -4°C° 0 mm 5 m/s 753 mmHg 93%
    11:00 -2°C° 0 mm 5 m/s 752 mmHg 92%
    12:00 -2°C° 0 mm 5 m/s 751 mmHg 93%
    13:00 -2°C° 0 mm 4 m/s 750 mmHg 95%
    14:00 0°C° 0 mm 3 m/s 750 mmHg 96%
    15:00 0°C° 0 mm 3 m/s 749 mmHg 93%
    16:00 0°C° 0 mm 3 m/s 748 mmHg 90%
    17:00 +1°C° 0 mm 2 m/s 747 mmHg 87%
    18:00 0°C° 0.1 mm 3 m/s 746 mmHg 87%
    19:00 -1°C° 0.1 mm 4 m/s 745 mmHg 86%
    20:00 -1°C° 0.1 mm 5 m/s 744 mmHg 86%
    21:00 -2°C° 0.2 mm 6 m/s 744 mmHg 87%
    22:00 -2°C° 0.2 mm 7 m/s 743 mmHg 89%
    23:00 -2°C° 0.2 mm 7 m/s 742 mmHg 90%
    Voir plus